When you browse on this site, cookies collect data to enhance your experience and personalize the content and advertising you see.
Visit our Privacy Policy to learn more. By continuing to use the site, you agree to this use of cookies and data.
  • In Switzerland
  • List of Countries
  • For 7 days
  • Water Temperature
  • Weather Map
  • Weather Widgets
  • user-avatar
    Login

    Hourly Weather Ajaccio

    Today, 4 June, Thursday

    Time Temperature Precipitation Wind Pressure Humidity
    00:00 +18°C° 0 mm 2 mps 742 mmHg 53%
    01:00 +18°C° 0 mm 3 mps 742 mmHg 51%
    02:00 +18°C° 0 mm 3 mps 741 mmHg 52%
    03:00 +18°C° 0 mm 3 mps 741 mmHg 52%
    04:00 +18°C° 0 mm 3 mps 740 mmHg 52%
    05:00 +19°C° 0 mm 3 mps 740 mmHg 53%
    06:00 +20°C° 0 mm 3 mps 740 mmHg 53%
    07:00 +21°C° 0 mm 3 mps 739 mmHg 53%
    08:00 +22°C° 0 mm 3 mps 739 mmHg 50%
    09:00 +25°C° 0 mm 4 mps 739 mmHg 46%
    10:00 +26°C° 0 mm 4 mps 738 mmHg 43%
    11:00 +26°C° 0.1 mm 4 mps 738 mmHg 44%
    12:00 +26°C° 0.1 mm 4 mps 737 mmHg 45%
    13:00 +26°C° 0 mm 5 mps 737 mmHg 45%
    14:00 +25°C° 0.1 mm 5 mps 737 mmHg 55%
    15:00 +23°C° 0.1 mm 5 mps 736 mmHg 64%
    16:00 +22°C° 0.1 mm 5 mps 736 mmHg 73%
    17:00 +22°C° 0.5 mm 4 mps 736 mmHg 80%
    18:00 +21°C° 0.5 mm 4 mps 736 mmHg 86%
    19:00 +20°C° 0.5 mm 4 mps 736 mmHg 93%
    20:00 +19°C° 0.6 mm 5 mps 736 mmHg 93%
    21:00 +19°C° 0.6 mm 5 mps 736 mmHg 93%
    22:00 +17°C° 0.6 mm 6 mps 736 mmHg 93%
    23:00 +17°C° 0.5 mm 6 mps 736 mmHg 92%

    Tomorrow, 5 June, Friday

    Time Temperature Precipitation Wind Pressure Humidity
    00:00 +16°C° 0.5 mm 6 mps 736 mmHg 91%
    01:00 +16°C° 0.5 mm 6 mps 736 mmHg 90%
    02:00 +16°C° 0.5 mm 6 mps 736 mmHg 90%
    03:00 +16°C° 0.5 mm 6 mps 736 mmHg 90%
    04:00 +16°C° 0.5 mm 6 mps 735 mmHg 90%
    05:00 +16°C° 0.7 mm 6 mps 735 mmHg 89%
    06:00 +16°C° 0.7 mm 6 mps 736 mmHg 88%
    07:00 +17°C° 0.7 mm 6 mps 736 mmHg 88%
    08:00 +17°C° 0.5 mm 7 mps 736 mmHg 83%
    09:00 +18°C° 0.5 mm 8 mps 736 mmHg 79%
    10:00 +18°C° 0.5 mm 9 mps 737 mmHg 75%
    11:00 +19°C° 0 mm 9 mps 737 mmHg 72%
    12:00 +19°C° 0 mm 9 mps 737 mmHg 69%
    13:00 +19°C° 0 mm 10 mps 738 mmHg 66%
    14:00 +19°C° 0 mm 9 mps 738 mmHg 66%
    15:00 +19°C° 0 mm 9 mps 738 mmHg 65%
    16:00 +19°C° 0 mm 9 mps 738 mmHg 65%
    17:00 +20°C° 0 mm 8 mps 738 mmHg 70%
    18:00 +18°C° 0 mm 8 mps 739 mmHg 74%
    19:00 +18°C° 0 mm 8 mps 739 mmHg 79%
    20:00 +18°C° 0 mm 7 mps 739 mmHg 82%
    21:00 +17°C° 0 mm 7 mps 740 mmHg 85%
    22:00 +17°C° 0 mm 6 mps 740 mmHg 88%
    23:00 +17°C° 0 mm 6 mps 741 mmHg 88%

    Day after tomorrow, 6 June, Saturday

    Time Temperature Precipitation Wind Pressure Humidity
    00:00 +17°C° 0 mm 6 mps 741 mmHg 88%
    01:00 +17°C° 0 mm 5 mps 741 mmHg 89%
    02:00 +17°C° 0 mm 5 mps 741 mmHg 89%
    03:00 +17°C° 0 mm 5 mps 741 mmHg 90%
    04:00 +16°C° 0 mm 5 mps 741 mmHg 90%
    05:00 +17°C° 0.1 mm 5 mps 742 mmHg 89%
    06:00 +17°C° 0.1 mm 5 mps 742 mmHg 87%
    07:00 +19°C° 0.1 mm 5 mps 743 mmHg 86%
    08:00 +20°C° 0.1 mm 5 mps 743 mmHg 81%
    09:00 +21°C° 0.1 mm 5 mps 743 mmHg 77%
    10:00 +21°C° 0.1 mm 4 mps 743 mmHg 73%
    11:00 +22°C° 0 mm 4 mps 743 mmHg 70%
    12:00 +22°C° 0 mm 4 mps 743 mmHg 67%
    13:00 +23°C° 0 mm 4 mps 744 mmHg 64%
    14:00 +23°C° 0 mm 4 mps 744 mmHg 64%
    15:00 +23°C° 0 mm 4 mps 743 mmHg 64%
    16:00 +22°C° 0 mm 4 mps 743 mmHg 64%
    17:00 +22°C° 0 mm 3 mps 743 mmHg 69%
    18:00 +21°C° 0 mm 3 mps 743 mmHg 73%
    19:00 +20°C° 0 mm 2 mps 743 mmHg 77%
    20:00 +19°C° 0 mm 2 mps 743 mmHg 79%
    21:00 +18°C° 0 mm 2 mps 743 mmHg 81%
    22:00 +17°C° 0 mm 2 mps 743 mmHg 83%
    23:00 +17°C° 0 mm 3 mps 743 mmHg 82%

    7 June, Sunday

    Time Temperature Precipitation Wind Pressure Humidity
    00:00 +17°C° 0 mm 3 mps 743 mmHg 81%
    01:00 +17°C° 0 mm 3 mps 743 mmHg 81%
    02:00 +17°C° 0 mm 3 mps 743 mmHg 81%
    03:00 +17°C° 0 mm 3 mps 743 mmHg 81%
    04:00 +18°C° 0 mm 3 mps 742 mmHg 81%
    05:00 +18°C° 0 mm 3 mps 742 mmHg 82%
    06:00 +19°C° 0 mm 3 mps 743 mmHg 83%
    07:00 +20°C° 0 mm 3 mps 743 mmHg 84%
    08:00 +21°C° 0 mm 3 mps 743 mmHg 78%
    09:00 +24°C° 0 mm 3 mps 743 mmHg 73%
    10:00 +25°C° 0 mm 3 mps 743 mmHg 67%
    11:00 +25°C° 0.1 mm 3 mps 743 mmHg 62%
    12:00 +26°C° 0.1 mm 3 mps 743 mmHg 58%
    13:00 +26°C° 0.1 mm 3 mps 743 mmHg 53%
    14:00 +25°C° 0 mm 3 mps 743 mmHg 56%
    15:00 +25°C° 0 mm 3 mps 743 mmHg 60%
    16:00 +24°C° 0 mm 3 mps 742 mmHg 63%
    17:00 +22°C° 0.1 mm 3 mps 742 mmHg 69%
    18:00 +21°C° 0.1 mm 4 mps 742 mmHg 76%
    19:00 +21°C° 0.1 mm 4 mps 742 mmHg 82%
    20:00 +20°C° 1.4 mm 4 mps 742 mmHg 85%
    21:00 +20°C° 1.4 mm 4 mps 743 mmHg 88%
    22:00 +19°C° 1.4 mm 4 mps 743 mmHg 91%
    23:00 +19°C° 1 mm 3 mps 743 mmHg 91%

    8 June, Monday

    Time Temperature Precipitation Wind Pressure Humidity
    00:00 +19°C° 1 mm 3 mps 742 mmHg 90%
    01:00 +18°C° 1 mm 2 mps 742 mmHg 90%
    02:00 +18°C° 0.2 mm 2 mps 742 mmHg 90%
    03:00 +18°C° 0.2 mm 2 mps 742 mmHg 91%
    04:00 +18°C° 0.2 mm 2 mps 742 mmHg 91%
    05:00 +19°C° 0.1 mm 2 mps 742 mmHg 90%
    06:00 +19°C° 0.1 mm 3 mps 742 mmHg 89%
    07:00 +20°C° 0.1 mm 3 mps 742 mmHg 89%
    08:00 +20°C° 0.2 mm 3 mps 742 mmHg 84%
    09:00 +21°C° 0.2 mm 3 mps 742 mmHg 78%
    10:00 +22°C° 0.2 mm 3 mps 742 mmHg 73%
    11:00 +22°C° 0.3 mm 3 mps 743 mmHg 73%
    12:00 +22°C° 0.3 mm 3 mps 743 mmHg 72%
    13:00 +22°C° 0.3 mm 4 mps 743 mmHg 72%
    14:00 +22°C° 0.1 mm 4 mps 743 mmHg 67%
    15:00 +22°C° 0.1 mm 4 mps 743 mmHg 62%
    16:00 +22°C° 0.1 mm 4 mps 743 mmHg 57%
    17:00 +21°C° 0 mm 4 mps 743 mmHg 59%
    18:00 +20°C° 0 mm 3 mps 743 mmHg 62%
    19:00 +19°C° 0 mm 3 mps 743 mmHg 65%
    20:00 +18°C° 0 mm 3 mps 743 mmHg 69%
    21:00 +17°C° 0 mm 3 mps 744 mmHg 73%
    22:00 +16°C° 0 mm 3 mps 744 mmHg 76%
    23:00 +16°C° 0 mm 3 mps 744 mmHg 77%

    9 June, Tuesday

    Time Temperature Precipitation Wind Pressure Humidity
    00:00 +14°C° 0 mm 3 mps 744 mmHg 77%
    01:00 +14°C° 0 mm 3 mps 744 mmHg 77%
    02:00 +14°C° 0 mm 3 mps 744 mmHg 78%
    03:00 +16°C° 0 mm 3 mps 744 mmHg 80%
    04:00 +16°C° 0 mm 3 mps 744 mmHg 81%
    05:00 +17°C° 0 mm 3 mps 744 mmHg 79%
    06:00 +18°C° 0 mm 4 mps 744 mmHg 77%
    07:00 +19°C° 0 mm 4 mps 744 mmHg 75%
    08:00 +20°C° 0 mm 4 mps 745 mmHg 70%
    09:00 +21°C° 0 mm 4 mps 745 mmHg 65%
    10:00 +21°C° 0 mm 4 mps 745 mmHg 60%
    11:00 +22°C° 0 mm 5 mps 745 mmHg 59%
    12:00 +22°C° 0 mm 5 mps 745 mmHg 57%
    13:00 +23°C° 0 mm 5 mps 746 mmHg 56%
    14:00 +22°C° 0 mm 5 mps 746 mmHg 57%
    15:00 +22°C° 0 mm 5 mps 746 mmHg 59%
    16:00 +22°C° 0 mm 5 mps 746 mmHg 61%
    17:00 +21°C° 0 mm 4 mps 746 mmHg 65%
    18:00 +20°C° 0 mm 4 mps 746 mmHg 69%
    19:00 +19°C° 0 mm 3 mps 746 mmHg 73%
    20:00 +18°C° 0 mm 3 mps 746 mmHg 77%
    21:00 +17°C° 0 mm 2 mps 747 mmHg 81%
    22:00 +16°C° 0 mm 2 mps 747 mmHg 84%
    23:00 +16°C° 0 mm 3 mps 747 mmHg 84%
    Show more